Kuujjuaq Airport, Quebec

Past 24 Hour Conditions

This table is a summary of hourly weather conditions for the past 24 hours. This summary includes the following parameters: temperature, humidity, dew point, wind speed and direction, air pressure, visibility and/or wind chill and humidex.
Date / Time
(EDT)
Conditions Temp (°C) Humidity (%) Dew Point (°C) Wind (km/h) Pressure (kPa) Visibility (km)
28 July 2014
8:00 Mostly Cloudy 11 95 10 NNE 12 101.2 24
7:00 Light Drizzle 10 96 9 NNE 11 101.2 3
6:00 Cloudy 10 94 9 NNE 12 101.2 13
5:00 Cloudy 9 92 8 N 10 101.2 24
4:00 Mostly Cloudy 8 95 7 NNW 10 101.1 24
3:00 Mostly Cloudy 8 92 7 N 13 101.1 24
2:00 Mostly Cloudy 8 93 7 N 9 101.1 24
1:00 Mostly Cloudy 8 91 7 NNW 16 101.1 24
00:00 Cloudy 9 89 7 NNW 11 101.1 24
27 July 2014
23:00 Cloudy 10 91 8 N 15 101.1 24
22:00 Mostly Cloudy 11 89 9 N 12 101.0 24
21:00 Mostly Cloudy 11 90 9 N 10 101.0 24
20:00 Mostly Cloudy 12 87 10 NNE 11 101.0 24
19:00 Mostly Cloudy 12 85 10 NE 16 100.9 24
18:00 Mostly Cloudy 12 82 9 NNE 17 100.9 24
17:00 Mostly Cloudy 12 75 8 NNE 18 100.8 24
16:00 Cloudy 12 78 9 NNE 12 100.8 24
15:00 Mostly Cloudy 13   75 8 NE 13 100.7 24
14:00 Mostly Cloudy 12 78 8 NE 10 100.7 24
13:00 Mostly Cloudy 11 81 8 NNW 13 100.7 24
12:00 Cloudy 10 81 7 N 17 100.7 24
11:00 Cloudy 8 86 6 NNW 15 100.7 24
10:00 Cloudy 7 90 5 NNW 14 100.7 24
9:00 Light Drizzle 6 92 5 NNW 18 100.6 13
8:00 Cloudy 5   92 4 N 18 100.6 24
N/A
Not available
 ↑ 
Highest temperature
 ↓ 
Lowest temperature

If you require additional historical weather information, please visit Climate Data Online.